Volver al catálogo

STARLINK-34617

ActivoComunicacionesVLEO
NORAD 65015·PAYLOAD·🇺🇸 United States

Lanzado Jul 30, 2025 desde Cape Canaveral Space Force Station

Loading…

Próximos Pases (próximas 24 horas)

TLE

ActualizadoSource: CelesTrak SupGP

Época: Sep 15, 2026, 02:31 UTC

1 65015C 25161A   26258.10534722 -.00061214  00000+0 -39850-3 0  2580
2 65015  53.1569 102.1699 0001014  58.1453  64.5310 15.75270393    10

Sigue STARLINK-34617 en tiempo real con AllMySat

Download on the App Store